Charter Quote
Worldwide +44-20-3874-8091 Call
Select Language Lang
SAFETY RELIABILITY EXPERIENCE

Safdarjung Airport (VIDD) - Jet Charter Services

AIRPORT INFORMATION
ICAOVIDD
LOCATIONDelhi (New Delhi), India
FACILITY TYPEAIRPORT
Runway Length (ft) Width (ft) Surface Type Elevation (ft)
30/12 4520 150 ASP 695.54098

At Paramount Business Jets you can hire chartered private jets to and from Safdarjung Airport with as little as 4 hours of notice. All flights booked via Paramount Business Jets are operated by certified direct air carriers that meet and exceed the FAA part 135 and 121 protocol or a foreign equivalent safety authority. Furthermore, Paramount Business Jets subscribes to ARGUS for their third party safety checks of operators, aircraft, and crews prior each and every flight to and from Safdarjung Airport and worldwide.

  • Quote a trip using Safdarjung Airport or call us 24/7 - 365 days a year at +44-20-3874-8091.
Questions? Call +44-20-3874-8091

METAR Weather Data at Safdarjung Airport, VIDD

STATIONVIDD
OBSERVEDThu Apr 25, 13:00 UTC
NOWThu Apr 25, 21:42 UTC
AGE8:42 hr ago
WINDNE at 9 mph
VISIBILITY4.8 miles
CONDITIONSwidespread dust
CLOUDSmostly cloudy
TEMP95°F (35°C)
DEWPT73°F (23°C)
HUMIDITY50%
HEAT INDEX105°F (41°C)
BAROMETER1006 hPa (29.71 in Hg)
METARVIDD 251300Z 05008KT 3000 DU SCT035 BKN100 35/23 Q1006 NOSIG

Call us on +44-20-3874-8091 (24 Hours) to Hire a Private Jet or Get a Quick Quote.

Find Airports Near any Location

Processing
...